Location: Unspecified
(48.8656°N, 0.0000°E)
Time: 20:41:32
(UTC+00:00)

Vanguard 1 Rocket - Pass Details

Date: 27 June 2019
Orbit: 651 x 4225 km, 34.3° (Epoch: 16 July)

Event Time Altitude Azimuth Distance (km) Brightness Sun altitude
Rises 18:48:04 0° 261° (W) 7,402 13.1 10.4°
Reaches altitude 10° 18:54:13 10° 255° (WSW) 5,815 12.4 9.5°
Maximum altitude 19:07:44 37° 197° (SSW) 2,677 9.8 7.5°
Drops below altitude 10° 19:15:21 10° 133° (SE) 3,274 9.7 6.4°
Sets 19:17:48 0° 124° (ESE) 3,933 10.0 6.0°
